Domov               UVHVVR             MKGP            O straneh              
ZDRAVSTVENO VARSTVO RASTLIN
  MREŽA AGROMET. POSTAJ
 ► PROGNOSTIČNA OBVESTILA
AGROMETEOROLOŠKI PODATKI -
ARSO
OBVLADOVANJE TVEGANJ ZARADI
NEUGODNIH VREMENSKIH RAZMER
  ► NARAVNE NESREČE
  ► SUŠA/MOČA
  ► NAMAKANJE
  ► ŽLED (gozdarstvo)
KARTOGRAFSKI PRIKAZI
SPLETNE POVEZAVE
PROJEKTI IN PUBLIKACIJE

AGROMETEOROLOŠKA MREŽA: VREMENSKE POSTAJE IN FENOLOŠKA OPAZOVANJA

Pregled podatkov za lokacijo Kasaze (Mirosan), meteorološka postaja 27394

Pregled senzorjev na lokaciji

ID Ime Zadnja
vrednost
Datum
zadnje
spremembe
Tip
senzorja
521 Temperatura 2 m (°C) 1,73 °C 11.12.2017 10:00 Generic -40 - +60 °C
522 Relativna vlaga 2 m (% RH) 99,29 % RH 11.12.2017 10:00 Generic 0 - 100 %
546 Omočenost lista (U) 0 U 11.12.2017 10:00 A730WET
4028 Padavine (mm) 0,4 mm 11.12.2017 10:00 Generic 0.2 mm

Pregled podatkov zadnjih 24 ur

Zap.
št.
Datum in čas Kasaze (Mirosan)
Omočenost
lista
Padavine Relativna
vlaga
2
m
Temperatura
2
m
0 11.12.2017 10:00 0 0,4 99,29 1,73
1 11.12.2017 09:30 0 0,4 99,34 1,59
2 11.12.2017 09:00 0 0,2 99,39 1,47
3 11.12.2017 08:30 0 0,6 99,32 1,49
4 11.12.2017 08:00 1 0,2 99,39 1,51
5 11.12.2017 07:30 1 0,4 99,12 1,15
6 11.12.2017 07:00 1 0,4 99,17 1,27
7 11.12.2017 06:30 1 0,2 98,93 1,17
8 11.12.2017 06:00 1 0,4 98,9 1,2
9 11.12.2017 05:30 1 0,2 98,93 1,07
10 11.12.2017 05:00 1 0,2 98,75 1,15
11 11.12.2017 04:30 1 0,6 98,61 1,49
12 11.12.2017 04:00 1 0,6 98,56 1,32
13 11.12.2017 03:30 1 0,4 98,39 1,27
14 11.12.2017 03:00 1 0,4 98,39 1,15
15 11.12.2017 02:30 1 0,4 97,83 1,12
16 11.12.2017 02:00 1 1,2 97,05 1,59
17 11.12.2017 01:30 1 1,6 97,17 1,88
18 11.12.2017 01:00 1 1,2 97,26 1,73
19 11.12.2017 00:30 1 0,8 96,97 1,51
20 11.12.2017 00:00 1 0,8 95,51 1,76
21 10.12.2017 23:30 1 1 94,43 2,25
22 10.12.2017 23:00 2 1,8 91,92 2,44
23 10.12.2017 22:30 2 1 93,82 2
24 10.12.2017 22:00 4 1,2 90,6 2,64
25 10.12.2017 21:30 5 1,8 85,1 2,88
26 10.12.2017 21:00 2 0 82,81 3,08
27 10.12.2017 20:30 2 0 83,76 2,78
28 10.12.2017 20:00 1 0 82,93 2,37
29 10.12.2017 19:30 2 0 84,91 2,22
30 10.12.2017 19:00 2 0 83,35 2,05
31 10.12.2017 18:30 2 0 84,22 1,51
32 10.12.2017 18:00 2 0 89,21 0,78
33 10.12.2017 17:30 3 0 92,33 0,68
34 10.12.2017 17:00 3 0 88,82 1,15
35 10.12.2017 16:30 2 0 83,15 1,86
36 10.12.2017 16:00 1 0 78,73 1,88
37 10.12.2017 15:30 1 0 76,14 2,1
38 10.12.2017 15:00 2 0 73,87 2,3
39 10.12.2017 14:30 2 0 69,38 2,44
40 10.12.2017 14:00 2 0 70,38 2,44
41 10.12.2017 13:30 2 0 70,72 1,54
42 10.12.2017 13:00 2 0 77 1,39
43 10.12.2017 12:30 5 0 75,82 -0,2
44 10.12.2017 12:00 2 0 83,79 -1,78
45 10.12.2017 11:30 1 0 86,25 -3,74
46 10.12.2017 11:00 1 0 91,67 -5,13
© 2011 Ministrstvo za kmetijstvo, gozdarstvo in prehrano. Vse pravice pridržane.